Weather observations for the past three days for
Moody Air Force Base
Imperial (Metric)
Date Time (edt) Wind (mph) Vis. (mi.) Weather Sky Cond. Temperature (ºF) Relative Humidity Wind Chill (°F) Heat Index (°F) Pressure Precipitation (in)
Air Dwpt 6 hour altimeter (in) sea level (mb) 1 hr 3 hr 6 hr
Max. Min.
17 19:55 SE 7 10.00 Fair CLR 83.8 57.6 41% 83 30.04 1017.3
17 18:55 E 15 10.00 Fair CLR 86.9 63 93.7 86.9 45% 88 30.02 1016.6
17 17:55 SE 14 G 23 10.00 A Few Clouds FEW048 90 66.4 46% 93 30.02 1016.6
17 16:55 SE 16 G 21 10.00 Partly Cloudy SCT049 91.4 67.6 46% 95 30.02 1016.6
17 15:55 SE 14 G 20 10.00 Partly Cloudy SCT045 90.1 68.9 50% 95 30.03 1016.9
17 14:55 SE 13 G 22 10.00 A Few Clouds FEW050 91.9 68.2 46% 96 30.04 1017.2
17 14:06 E 9 10.00 Mostly Cloudy SCT048 SCT100 SCT140 BKN180 89.6 68 49% 93 30.07 0.0
17 13:04 SE 8 10.00 Partly Cloudy FEW045 SCT190 91.4 69.8 49% 97 30.08 0.0
17 08:55 SE 8 10.00 Fair CLR 79.3 72.9 81% 83 30.08 1018.6
17 07:55 E 6 10.00 Fair CLR 74.7 71.4 78.3 72.7 90% 30.08 1018.6
17 06:55 SE 5 10.00 Fair CLR 73.2 71.1 93% 30.07 1018.3
17 05:55 E 5 10.00 Fair CLR 72.9 70.3 92% 30.06 1017.9
17 04:55 E 5 10.00 Fair CLR 74.1 71.2 91% 30.05 1017.6
17 03:55 SE 5 10.00 Fair CLR 74.5 71.1 89% 30.06 1017.9
17 02:55 E 5 10.00 Fair CLR 75.6 71.1 86% 76 30.07 1018.2
17 01:55 SE 3 10.00 Fair CLR 77.7 71.8 88 75.2 82% 80 30.09 1018.9
17 00:55 SE 3 10.00 Fair CLR 77.5 69.6 77% 79 30.1 1019.3
16 23:55 SE 6 10.00 Fair CLR 79.9 69.6 71% 83 30.09 1018.9
16 22:55 SE 7 10.00 Fair CLR 81.3 68.9 66% 84 30.07 1018.2
16 21:55 SE 7 10.00 Fair CLR 83.3 68.4 61% 87 30.07 1018.2
16 20:55 SE 8 10.00 Fair CLR 85.1 67.1 55% 88 30.04 1017.2
16 19:55 SE 8 10.00 Fair CLR 88.2 65.8 96.6 88.2 48% 90 30.03 1016.9
16 18:55 E 13 10.00 Fair CLR 90.1 67.1 47% 93 29.99 1015.5
16 17:55 SE 9 10.00 A Few Clouds FEW090 92.5 67.3 44% 96 29.99 1015.5
16 16:55 E 8 10.00 Fair CLR 96.4 65.8 37% 100 29.98 1015.2
16 15:55 E 12 10.00 Fair CLR 95.9 66.2 38% 99 30 1015.8
16 14:55 SE 9 10.00 A Few Clouds FEW055 FEW200 95.5 69.4 43% 102 30.01 1016.2
16 13:55 SE 7 10.00 Partly Cloudy FEW046 SCT060 SCT140 SCT190 92.8 69.6 93.7 76.3 47% 99 30.04 1017.2
16 12:55 SE 5 10.00 A Few Clouds FEW039 FEW160 91 70.9 52% 97 30.06 1017.9
16 11:55 SE 9 10.00 A Few Clouds FEW033 88.2 69.8 55% 93 30.06 1017.9
16 10:55 E 6 10.00 NULL NULL 87.4 72.7 62% 95 30.07 1018.2
16 09:55 Calm 10.00 NULL NULL 84.4 72.1 67% 90 30.07 1018.2
16 08:55 S 6 10.00 Fair CLR 80.6 71.1 73% 84 30.06 1017.9
16 07:55 S 6 10.00 Fair CLR 76.1 70.5 77.2 71.4 83% 77 30.04 1017.2
16 06:55 Calm 10.00 Fair CLR 72.9 69.1 88% 30.01 1016.2
16 05:55 SE 3 10.00 Mostly Cloudy BKN022 73.2 68.7 86% 30.01 1016.2
16 04:55 Calm 10.00 Mostly Cloudy BKN014 73.4 68.9 86% 30 1015.9
16 03:55 Calm 10.00 Fair CLR 73.6 68 83% 29.99 1015.5
16 02:55 S 3 10.00 Fair CLR 74.8 67.5 78% 29.99 1015.5
16 01:55 SE 3 10.00 Fair CLR 77.4 66.7 92.1 77.4 70% 79 29.99 1015.5
16 00:55 S 3 10.00 Fair CLR 78.8 65.5 64% 81 29.99 1015.5
15 23:55 SE 8 10.00 Fair CLR 81.3 64.6 57% 83 29.98 1015.2
15 22:55 SE 6 10.00 Fair CLR 81.9 62.4 52% 83 29.97 1014.8
15 21:55 SE 7 10.00 Fair CLR 84.4 63.1 49% 85 29.96 1014.5
15 20:55 SE 6 10.00 Fair CLR 87.6 65.5 48% 90 29.95 1014.2
15 19:55 SE 5 10.00 Fair CLR 92.3 63.7 97.9 91.8 39% 94 29.92 1013.2
15 18:55 SE 7 10.00 Fair CLR 94.1 62.2 35% 95 29.91 1012.8
15 17:55 E 9 10.00 Fair CLR 95.4 62.4 34% 96 29.91 1012.8
15 16:55 SE 3 10.00 Fair CLR 95.2 61.5 33% 96 29.93 1013.5
15 15:55 NE 6 10.00 Fair CLR 95.9 63 34% 97 29.94 1013.8
15 14:55 E 8 10.00 Fair CLR 95.7 63.7 35% 98 29.95 1014.2
15 13:55 E 8 10.00 Partly Cloudy SCT065 SCT180 92.7 62.4 94.8 75 37% 93 29.97 1014.8
15 12:55 SE 6 10.00 A Few Clouds FEW190 92.7 65.5 41% 95 29.98 1015.2
15 11:55 S 5 9.00 Fair CLR 91.8 65.3 42% 94 29.99 1015.5
15 10:55 SE 5 10.00 Fair CLR 87.1 64.9 48% 89 29.98 1015.2
15 09:55 Calm 10.00 NULL NULL 87.6 70 56% 93 29.98 1015.2
15 08:55 S 3 10.00 Fair CLR 80.2 72.7 78% 84 29.98 1015.2
15 07:55 Calm 10.00 Fair CLR 75.2 70.7 75.7 69.8 86% 75 29.97 0.0
15 06:55 Calm 10.00 Fair CLR 70.5 68.4 93% 29.95 0.0
15 05:55 Calm 10.00 Fair CLR 70.2 68.5 95% 29.94 0.0
15 04:55 Calm 10.00 Fair CLR 71.1 68.9 93% 29.93 0.0
15 03:55 Calm 10.00 Fair CLR 72.1 69.3 91% 29.91 0.0
15 02:55 Calm 10.00 Fair CLR 75.4 70.2 84% 76 29.92 0.0
15 01:55 Calm 10.00 Fair CLR 75.6 68.9 87.6 75.4 80% 76 29.93 0.0
15 00:55 S 3 10.00 Fair CLR 77.2 69.4 77% 79 29.94 0.0
14 23:55 S 5 10.00 Fair CLR 78.4 69.8 75% 81 29.93 0.0
14 22:55 SE 5 10.00 Fair CLR 80.6 69.8 70% 84 29.92 0.0
14 21:55 SE 6 10.00 Fair CLR 82.9 70 65% 87 29.91 0.0
14 20:55 E 5 10.00 Partly Cloudy SCT065 83.7 67.8 59% 87 29.88 0.0
Date Time (edt) Wind (mph) Vis. (mi.) Weather Sky Cond. Air Dwpt Max. Min. Relative Humidity Wind Chill (°F) Heat Index (°F) altimeter (in) sea level (mb) 1 hr 3 hr 6 hr
6 hour
Temperature (ºF) Pressure Precipitation (in)